Retour au catalogue

SL-6 R/B(2)

ActifHEO
NORAD 12680·ROCKET BODY·🇷🇺 Russia

Lancé Aug 4, 1981 depuis Plesetsk Cosmodrome

Loading…

Prochains Passages (prochaines 24 heures)

TLE

FraisSource: Space-Track

Époque: Sep 14, 2026, 06:12 UTC

1 12680U 81071D   26257.25883156 -.00000729  00000-0  00000-0 0  9993
2 12680  66.4736  46.0634 6701529  13.5226 357.8204  1.99245081246520

Suivez SL-6 R/B(2) en temps réel avec AllMySat

Download on the App Store